This is the latest recevied weather packets stored in our database for station/object K7SKM. If no packets are shown the sender has not sent any weather packets the latest 1 day(s).
| Time | Temp. | Humidity | Pressure | Rain* | Wind** | Luminosity | Snow |
|---|---|---|---|---|---|---|---|
| 1778080054 | 12.22° C | 79% | 1024.6 hPa | 0 mm | - | 24 W/m² | - |
| 1778077028 | 12.22° C | 79% | 1024.2 hPa | 0 mm | - | 10 W/m² | - |
| 1778076726 | 12.78° C | 79% | 1024.3 hPa | 0 mm | - | 11 W/m² | - |
| 1778076120 | 12.22° C | 78% | 1024.3 hPa | 0 mm | - | 9 W/m² | - |
| 1778075817 | 12.22° C | 79% | 1024.1 hPa | 0 mm | - | 11 W/m² | - |
| 1778075210 | 12.22° C | 79% | 1024.2 hPa | 0 mm | - | 7 W/m² | - |
| 1778074906 | 12.22° C | 79% | 1024 hPa | 0 mm | - | 5 W/m² | - |
| 1778074300 | 12.22° C | 80% | 1024.2 hPa | 0 mm | - | 2 W/m² | - |
| 1778073694 | 12.22° C | 80% | 1023.7 hPa | 0 mm | - | 3 W/m² | - |
| 1778073392 | 12.22° C | 81% | 1023.6 hPa | 0 mm | - | 1 W/m² | - |
| 1778072785 | 12.22° C | 82% | 1023.6 hPa | 0 mm | - | 0 W/m² | - |
| 1778071878 | 12.22° C | 82% | 1023.6 hPa | 0 mm | - | 0 W/m² | - |
| 1778069761 | 12.22° C | 82% | 1023.4 hPa | 0 mm | - | 0 W/m² | - |
| 1778069155 | 12.22° C | 82% | 1023.2 hPa | 0 mm | - | 0 W/m² | - |
| 1778067945 | 12.78° C | 81% | 1023 hPa | 0 mm | - | 0 W/m² | - |
| 1778067341 | 12.78° C | 80% | 1023.2 hPa | 0 mm | - | 0 W/m² | - |
| 1778067038 | 12.78° C | 80% | 1023.3 hPa | 0 mm | - | 0 W/m² | - |
| 1778066432 | 12.78° C | 80% | 1023.1 hPa | 0 mm | - | 0 W/m² | - |
| 1778066130 | 12.78° C | 79% | 1023.2 hPa | 0 mm | - | 0 W/m² | - |
| 1778065827 | 12.78° C | 79% | 1022.9 hPa | 0 mm | - | 0 W/m² | - |
| 1778064615 | 12.78° C | 78% | 1023 hPa | 0 mm | - | 0 W/m² | - |
| 1778063103 | 12.78° C | 78% | 1022.8 hPa | 0 mm | - | 0 W/m² | - |
| 1778060983 | 12.78° C | 78% | 1022.3 hPa | 0 mm | - | 0 W/m² | - |
| 1778060682 | 12.78° C | 78% | 1022.4 hPa | 0 mm | - | 0 W/m² | - |
| 1778060379 | 12.78° C | 77% | 1022.4 hPa | 0 mm | - | 0 W/m² | - |
* Rain latest hour (hover to see other rain measurements)
** Current wind speed in m/s (hover to see current wind gust speed)